{"data":{"norad_id":68028,"intl_designator":"2026-040P","name":"STARLINK-36253","alt_names":[],"object_type":"PAYLOAD","status":"ACTIVE","operator":null,"country":"US","launch_date":"2026-03-01","launch_site_code":"AFWTR","launch_vehicle":null,"mission":null,"orbit_class":"UNKNOWN","rcs_meters":null,"size_class":null,"mass_kg":null,"dimensions":null,"purposes":["comms"],"wikipedia_slug":null,"has_3d_model":false,"image_url":null,"decayed_at":null,"tle_current":{"epoch":"2026-05-25T03:10:13.047744Z","epoch_age_seconds":59584,"freshness":"FRESH","line1":"1 68028U 26040P   26145.13209546  .00020775  00000+0  64360-3 0  9996","line2":"2 68028  97.2842  93.1644 0002055  93.3296 266.8182 15.33466347 13110","mean_motion":15.33466347,"eccentricity":0.0002055,"inclination_deg":97.2842,"raan_deg":93.1644,"arg_perigee_deg":93.3296,"mean_anomaly_deg":266.8182,"bstar":0.0006436,"rev_number":1311,"period_min":93.904897412137,"perigee_km":464.07329833787,"apogee_km":466.88602478577,"semimajor_km":6843.6166615618,"source":"CELESTRAK","updated_at":"2026-05-25T13:38:21.806966Z"}}}